STARLINK-37184, 68393

Orbit data source: Space-Track

STARLINK-37184, 68393 is a payload satellite owned by SpaceX/Seattle (US) in SSO that was launched on Thu, 26 Mar 2026 UTC via an FALCON 9 launch vehicle from the Air Force Western Test Range (AFWTR). Payload-class satellites include a variety of spacecraft equipped with specific instruments for various scientific and technological missions. These include communications satellites like Starlink; space stations such as the ISS; scientific satellites like the Hubble; Earth observation satellites from companies like Planet Labs, Umbra, and HawkEye 360; GPS; miniature CubeSats for education and research; and military/defense satellites.

Loading next visibility...
Identifier
68393, 2026-063P
Orbit
SSO
Country
Flag of USUS
Related business
Manufacturer
SpaceX/Seattle
Mission
Operational spacecraft
Bus & Motor
STARLINK V2MO, Unknown motor
Mass
575 kg wet, ~530 kg dry
Launch date (UTC)
2026-03-26 (3 months ago)
Launch vehicle
FALCON 9
Launch site
Air Force Western Test Range (AFWTR)
Object type
Payload
Rocket body
Debris
Shape & HBR
Unknown shape, 17.7 m
Radar Cross Section
Large (>1 m²)

Expand to show TLE details & history
Last TLE update: 11 hours ago

TLE from 11 hours ago
0 STARLINK-37184
1 68393U 26063P   26165.63829553  .00015295  00000-0  47437-3 0  9997
2 68393  97.2855 307.9202 0000868  92.2322 267.9021 15.33496652 12758
Epoch: 2026-06-14T15:19Z
TLE epoch observation values (Epoch: 2026-06-14T15:19:08.733Z)
Latitude
0.00004°
Longitude
175.19765°
Altitude
468.523 km
Speed
7.632 km/s
True Right ascension
20h 31m 40s
True Declination
0° 00' 00"
Sunlit
Object was in full shadow at epoch
Visualization orbit readout
Latitude
Unknown
Longitude
Unknown
Altitude
Unknown
Speed
Unknown
Apparent Right ascension
Unknown
Apparent Declination
Unknown
Sunlit
N/A
Visualization observer readout
Local Sidereal Time
12:58:05
Azimuth
Unknown
Elevation
Unknown
Doppler factor
Unknown
Orbital elements
Apogee altitude
462.926 km
Perigee altitude
461.738 km
Semi-major axis
6,840.469 km
Eccentricity
0.00009
Inclination
97.2855°
RAAN
307.9202°
Arg. of periapsis
92.2322°
True anomaly
267.89216°
Mean anomaly
267.9021°
Eccentric anomaly
267.89713°
Mean motion
3.83632 °/min
Orbital period
93.84 mins
BSTAR
0.00047437
Loading maneuver chart data...
Computing Atmospheric mass density...
Loading historical data...
Loading historical data...
Loading historical data...
Loading historical data...
Loading historical data...
Loading historical data...
Loading historical data...

Documentation

Showing up to 5 results
|